Regional Weather Roundup
Issued by NWS

Home | Current Version | Previous Version | Text Only | Print | Product List | Glossary Off
Versions: 1 2 3 4 5 6 7 8 9 10 11 12 13 14 15 16 17 18 19 20 21 22 23 24 25 26 27 28 29 30 31 32 33 34 35 36 37 38 39 40 41 42 43 44 45 46 47 48 49 50

000
ASUS43 KLOT 170409
RWRIL

ILLINOIS REGIONAL WEATHER ROUNDUP
NATIONAL WEATHER SERVICE CHICAGO/ROMEOVILLE IL
1000 PM CST TUE JAN 16 2018

NOTE: "FAIR" INDICATES FEW OR NO CLOUDS BELOW 12,000 FEET WITH NO
SIGNIFICANT WEATHER AND/OR OBSTRUCTIONS TO VISIBILITY.

* THESE STATIONS ARE NOT UNDER NWS QUALITY CONTROL. THEY ALSO MAY NOT
  REPORT WEATHER SUCH AS PRECIPITATION OR FOG.

ILZ001-002-007-009-015-016-024-170500-
NORTHWEST ILLINOIS

CITY           SKY/WX    TMP DP  RH WIND       PRES   REMARKS
MOLINE         FAIR       5   0  79 W7        30.63R WCI  -7
STERLING*      FAIR       3   0  87 W8        30.60R WCI -10
SAVANNA*       FAIR       7   2  82 W3        30.61S
$$

ILZ003-004-008-010-011-017-018-170500-
NORTH CENTRAL ILLINOIS

CITY           SKY/WX    TMP DP  RH WIND       PRES   REMARKS
ROCKFORD       FAIR       8   2  76 NW5       30.58R WCI   0
FREEPORT*      FAIR       7   3  84 W9        30.57F WCI  -7
ROCHELLE*      FAIR      -1  -4  87 SW6       30.57R WCI -12
DE KALB*       FAIR       8   4  85 W10       30.55R WCI  -7
PERU*          FAIR       7   3  84 W9        30.60S WCI  -7
$$

ILZ005-006-012>014-019>023-170500-
NORTHEAST ILLINOIS

CITY           SKY/WX    TMP DP  RH WIND       PRES   REMARKS
CHICAGO-OHARE  FAIR      15   8  73 W9        30.53S WCI   3
CHICAGO-MIDWAY FAIR      16  10  77 NW8       30.53S WCI   5
AURORA         FAIR       3   0  87 W8        30.55S WCI -10
LANSING*       FAIR      14  10  83 W5        30.53S WCI   7
JOLIET*        FAIR      10   6  87 CALM      30.56S
WAUKEGAN       FAIR      14   8  77 W5        30.51S WCI   6
DUPAGE AIRPORT FAIR       8   6  92 NW7       30.53S WCI  -3
KANKAKEE*      FAIR       6   2  84 W9        30.57S WCI  -8
WHEELING       FAIR      15   9  76 NW6       30.54F WCI   6
MORRIS*        FAIR       7   3  84 W9        30.56S WCI  -7
ROMEOVILLE*    FAIR       8   5  88 NW8       30.54S WCI  -4
NORTHERLY ISL    N/A     19  11  70 W8          N/A  WCI   9
$$

LMZ740>746-170500-
SOUTHERN LAKE MICHIGAN

STATION/POSITION SKY/WX   TEMP    WIND        PRES    VSBY  WAVE
                          AIR SEA DIR/SP/G                  HT/PER
                          (F)     (DEG/KT/KT) (MB)    (MI)  (FT/S)
HARRISON CRIB              21     310/ 17/ 20   N/A
BURNHAM HARBOR             19     260/  9/ 13   N/A
CALUMET HARBOR             17     270/  4/ 10 1032.8S
BURNS HARBOR               24     310/ 15/ 22 1032.8R
MICHIGAN CITY              25     300/ 26/ 29   N/A
$$

ILZ025>027-034>036-040-047-049-050-058-095>099-170500-
WEST-CENTRAL ILLINOIS

CITY           SKY/WX    TMP DP  RH WIND       PRES   REMARKS
QUINCY         CLEAR      2  -3  80 NW8       30.66F WCI -12
GALESBURG*     FAIR       1  -2  86 W8        30.63F WCI -12
MACOMB*        CLEAR      2  -2  83 W8        30.67S WCI -12
JACKSONVILLE*  CLEAR      4  -2  78 W6        30.67S WCI  -7
PITTSFIELD*    CLEAR      6   0  76 W6        30.68S WCI  -4
$$

ILZ028>032-037-038-041>044-048-051>054-059>061-170500-
CENTRAL ILLINOIS

CITY           SKY/WX    TMP DP  RH WIND       PRES   REMARKS
PONTIAC        FAIR       6   4  92 W10       30.59F WCI  -8
BLOOMINGTON    FAIR       4   1  88 W13       30.59S WCI -13
DECATUR        FAIR       7   4  87 W13       30.62S WCI  -9
PEORIA         FAIR       6   1  80 W5        30.63S WCI  -3
LACON*         FAIR       6   2  83 CALM      30.62S
LINCOLN*       FAIR       7   3  83 W7        30.64S WCI  -4
SPRINGFIELD    FAIR       4   0  83 W6        30.66R WCI  -7
TAYLORVILLE    FAIR       5   0  79 W6        30.66R WCI  -5
$$

ILZ033-039-045-046-055>057-062-063-170500-
EAST-CENTRAL ILLINOIS

CITY           SKY/WX    TMP DP  RH WIND       PRES   REMARKS
CHAMPAIGN      FAIR       1  -2  87 W10       30.60S WCI -15
DANVILLE*      FAIR       1  -2  86 W6        30.55S WCI -11
RANTOUL*       FAIR       6   2  85 W12       30.58S WCI -10
MATTOON        FAIR       4   1  88 W7        30.61S WCI  -8
PARIS*         FAIR       4   1  87 W10       30.61S WCI -11
$$

ILZ079-100>102-170500-
SOUTHWEST ILLINOIS

CITY           SKY/WX    TMP DP  RH WIND       PRES   REMARKS
ALTON          PTCLDY     9   5  85 W9        30.69F WCI  -5
BELLEVILLE     CLOUDY    10   2  69 W6        30.69S WCI   0
CAHOKIA*       CLOUDY    11   2  67 NW10      30.71F WCI  -3
SPARTA*        CLOUDY     9   3  77 NW6       30.71S WCI  -1
$$

ILZ064>066-069>071-074>076-080>082-084>086-088>090-092>094-170500-
SOUTH-CENTRAL ILLINOIS

CITY           SKY/WX    TMP DP  RH WIND       PRES   REMARKS
CARBONDALE     CLOUDY    10   3  73 NW14      30.70S WCI  -6
CAIRO*         CLOUDY    10   5  81 W5        30.71S WCI   1
EFFINGHAM*     FLURRIES   9   4  82 W7        30.67S WCI  -3
MARION         CLOUDY    10   3  74 NW6       30.70S WCI   0
MT. VERNON     FLURRIES   9   3  77 CALM      30.69S
CENTRALIA*     FLURRIES  10   6  81 NW6       30.68S WCI   1
SALEM*         FLURRIES  11   4  75 NW7       30.67F WCI   0
METROPOLIS*    FLURRIES   9   2  72 NW5       30.70S WCI   1
$$

ILZ067-068-072-073-078-083-087-091-170500-
SOUTHEAST ILLINOIS

CITY           SKY/WX    TMP DP  RH WIND       PRES   REMARKS
LAWRENCEVILLE  FLURRIES   9   4  80 W7        30.66S WCI  -2
FLORA*         CLOUDY    11   6  77 W8        30.68S WCI   0
FAIRFIELD*     CLOUDY    10   3  75 W3        30.68R
HARRISBURG*    CLOUDY    10   4  79 NW8       30.70S WCI  -2
ROBINSON*      FLURRIES   8   4  83 W6        30.67S WCI  -2
CARMI*         CLOUDY     9   4  79 NW8       30.68S WCI  -3
$$

ABBREVIATIONS USED IN REMARKS
   TC - TEMPERATURE IN CELSIUS
  WCI - WIND CHILL INDEX
   HX - HEAT INDEX
  VSB - VISIBILITY
$$





USA.gov is the U.S. government's official web portal to all federal, state and local government web resources and services.